Location: Amsterdam
(30.7274°N, 84.4357°W)
Time: 20:32:17
(UTC+00:00)

Altair - Pass Details

Date: 12 August 2024
Orbit: 1501 x 1682 km, 47.2° (Epoch: 07 September)

Event Time Altitude Azimuth Distance (km) Brightness Sun altitude
Rises 13:31:59 0° 169° (S) 4,919 10.3 30.7°
Reaches altitude 10° 13:38:14 10° 141° (SE) 3,924 10.3 32.1°
Maximum altitude 13:41:27 12° 122° (ESE) 3,762 10.6 32.8°
Drops below altitude 10° 13:44:38 10° 103° (ESE) 3,902 11.0 33.5°
Sets 13:50:42 0° 75° (ENE) 4,857 11.1 34.8°
